DateTimeUTC,F1_A11,F1_S11,BsB_S11,BsG_S11,BsR_S11,BbsB_S11,BbsG_S11,BbsR_S11,BaB_A11,BaG_A11,BaR_A11,Tu_S11,T_S11,Uu_S11,U_S11,P_S11,T1_A11
2021-03-11T05:00:00Z,00000200,21000000,,,,,,,-000.25,0000.36,0000.16,16.5,24.4,,00.0,0638.4,30.9
2021-03-11T05:01:00Z,00000200,21000000,,,,,,,-000.17,-000.10,0000.27,16.6,24.4,,00.0,0638.4,30.9
2021-03-11T05:02:00Z,00000200,21000000,,,,,,,0000.25,0000.02,-000.54,16.6,24.4,,00.0,0638.4,30.9
2021-03-11T05:03:00Z,00000200,61000000,,,,,,,0000.68,0000.48,0000.76,16.6,24.4,,00.0,0638.4,30.9
2021-03-11T05:04:00Z,00000200,41000000,0001.57,0001.14,0000.58,0000.43,0000.22,0000.18,0000.70,0000.97,0000.61,17.1,24.3,,00.0,0639.3,30.9
2021-03-11T05:05:00Z,00000200,01000000,0002.18,0001.36,0000.78,0000.61,0000.18,-000.07,0000.54,0000.21,0000.37,17.2,24.3,,00.0,0639.4,31.0
2021-03-11T05:06:00Z,00000200,01000000,0002.38,0001.03,0000.29,0000.48,0000.18,0000.22,0000.99,0000.52,0000.10,17.2,24.3,,00.0,0639.4,31.0
2021-03-11T05:07:00Z,00000200,01000000,0001.65,0001.49,0000.74,0000.06,0000.40,0000.19,0000.55,0000.75,0000.80,17.2,24.3,,00.0,0639.4,31.0
2021-03-11T05:08:00Z,00000200,01000000,0002.29,0001.01,0000.60,0000.63,0000.08,0000.04,0001.01,0000.96,0000.56,17.1,24.3,,00.0,0639.4,30.9
2021-03-11T05:09:00Z,00000200,01000000,0001.72,0001.17,0000.51,0000.56,0000.17,0000.06,0000.35,0000.66,0000.38,17.1,24.2,,00.0,0639.4,30.9
2021-03-11T05:10:00Z,00000200,01000000,0002.24,0001.17,0000.60,0000.46,0000.37,0000.31,0000.78,0000.48,0000.51,17.0,24.2,,00.0,0639.4,30.9
2021-03-11T05:11:00Z,00000200,01000000,0001.74,0001.12,0000.86,0000.09,0000.41,0000.39,0000.76,0000.71,0000.55,16.9,24.2,,00.0,0639.4,30.9
2021-03-11T05:12:00Z,00000200,01000000,0001.39,0001.31,0000.45,0000.28,0000.30,-000.05,0000.78,0000.35,0000.32,16.9,24.1,,00.0,0639.4,30.9
2021-03-11T05:13:00Z,00000200,01000000,0001.57,0001.45,0000.78,0000.66,0000.42,0000.49,0000.85,0000.70,0000.28,16.8,24.1,,00.0,0639.4,30.9
2021-03-11T05:14:00Z,00000200,01000000,0002.03,0001.17,0000.65,0000.10,0000.25,0000.42,0000.46,0000.74,0000.60,16.9,24.1,,00.0,0639.4,30.9
2021-03-11T05:15:00Z,00000200,01000000,0001.84,0001.03,0000.87,0000.10,0000.16,0000.18,0000.69,0000.54,0000.22,16.9,24.1,,00.0,0639.4,30.9
2021-03-11T05:16:00Z,00000200,01000000,0002.26,0001.04,0000.83,0000.41,0000.34,0000.34,0000.44,0000.35,0000.35,17.0,24.1,,00.0,0639.4,30.9
2021-03-11T05:17:00Z,00000200,01000000,0001.83,0001.29,0000.61,0000.44,0000.20,-000.02,0000.61,0000.41,0000.54,17.1,24.1,,00.0,0639.4,30.9
2021-03-11T05:18:00Z,00000200,01000000,0002.53,0001.24,0000.70,0000.64,0000.45,0000.15,0000.86,0000.99,0000.77,17.1,24.2,,00.0,0639.5,30.9
2021-03-11T05:19:00Z,00000200,01000000,0001.95,0001.25,0000.82,0000.44,0000.29,0000.25,0000.42,0000.72,0000.40,17.2,24.2,,00.0,0639.5,30.9
2021-03-11T05:20:00Z,00000200,01000000,0002.05,0000.97,0000.79,0000.56,0000.24,0000.28,0000.69,0000.40,0000.38,17.2,24.2,,00.0,0639.5,30.9
2021-03-11T05:21:00Z,00000200,01000000,0001.95,0001.06,0000.81,0000.53,0000.34,0000.20,0000.92,0000.47,-000.04,17.3,24.2,,00.0,0639.5,30.9
2021-03-11T05:22:00Z,00000200,01000000,0001.70,0001.25,0000.87,0000.70,0000.15,0000.22,0000.81,0000.92,0001.04,17.2,24.2,,00.0,0639.5,30.9
2021-03-11T05:23:00Z,00000200,01000000,0002.40,0001.14,0000.49,0000.59,0000.27,0000.22,0000.35,0000.57,0000.46,17.1,24.2,,00.0,0639.5,30.9
2021-03-11T05:24:00Z,00000200,01000000,0002.17,0001.21,0000.68,0000.81,0000.41,-000.08,0000.99,0000.58,0000.50,17.1,24.2,,00.0,0639.5,30.9
2021-03-11T05:25:00Z,00000200,01000000,0001.89,0001.35,0000.48,0000.69,0000.43,0000.01,0000.66,0000.59,0000.19,17.0,24.1,,00.0,0639.5,30.9
2021-03-11T05:26:00Z,00000200,01000000,0002.22,0001.06,0000.72,0000.48,0000.29,0000.04,0000.75,0000.55,0000.65,16.9,24.1,,00.0,0639.4,30.9
2021-03-11T05:27:00Z,00000200,01010000,0002.23,0001.19,0000.68,0000.85,0000.16,0000.22,0001.17,0001.08,0000.45,16.9,24.1,,00.0,0639.4,30.9
2021-03-11T05:28:00Z,00000200,01000000,0001.98,0001.24,0000.63,0000.40,0000.42,0000.00,0000.20,0000.63,0000.63,16.9,24.0,,00.0,0639.4,30.9
2021-03-11T05:29:00Z,00000200,01000000,0002.43,0001.53,0000.69,0000.50,0000.22,0000.22,0001.28,0000.73,0000.73,16.9,24.0,,00.0,0639.4,30.9
2021-03-11T05:30:00Z,00000200,01000000,0001.79,0001.27,0000.63,0000.21,0000.43,0000.21,0000.53,0000.50,0000.67,17.0,24.1,,00.0,0639.4,30.9
2021-03-11T05:31:00Z,00000200,01000000,0001.98,0001.26,0000.57,0000.52,0000.06,0000.03,0001.00,0000.60,0000.46,17.0,24.1,,00.0,0639.4,30.9
2021-03-11T05:32:00Z,00000200,01000000,0002.19,0001.00,0000.83,0000.52,0000.15,0000.29,0000.38,0000.84,-000.10,17.1,24.1,,00.0,0639.4,30.9
2021-03-11T05:33:00Z,00000200,01000000,0001.72,0001.23,0000.66,0000.26,0000.27,0000.08,0000.82,0000.41,0000.78,17.1,24.2,,00.0,0639.4,30.9
2021-03-11T05:34:00Z,00000200,01000000,0002.27,0001.20,0000.59,0000.38,0000.11,0000.29,0000.79,0000.97,0000.37,17.2,24.2,,00.0,0639.4,30.9
2021-03-11T05:35:00Z,00000200,01000000,0001.55,0001.16,0000.80,0000.59,0000.23,0000.08,0000.87,0000.18,0000.80,17.2,24.2,,00.0,0639.4,30.9
2021-03-11T05:36:00Z,00000200,01000000,0002.28,0001.07,0000.50,0000.81,0000.52,0000.25,0000.47,0000.75,0000.15,17.2,24.2,,00.0,0639.4,30.9
2021-03-11T05:37:00Z,00000200,01000000,0002.45,0001.04,0000.58,0000.53,0000.35,0000.31,0000.69,0000.87,0000.14,17.2,24.2,,00.0,0639.4,30.9
2021-03-11T05:38:00Z,00000200,01000000,0001.98,0001.32,0000.76,0000.26,0000.22,0000.06,0000.89,0000.70,0000.80,17.1,24.2,,00.0,0639.4,30.9
2021-03-11T05:39:00Z,00000200,01000000,0001.90,0001.54,0000.71,0000.91,0000.08,0000.23,0000.81,0000.87,0000.52,17.0,24.1,,00.0,0639.4,30.9
2021-03-11T05:40:00Z,00000200,01000000,0002.30,0001.18,0000.55,0000.24,0000.21,0000.30,0000.45,0000.55,0000.68,17.0,24.1,,00.0,0639.4,30.9
2021-03-11T05:41:00Z,00000200,01000000,0002.90,0001.30,0000.59,0000.53,0000.24,0000.25,0000.66,0000.65,-000.10,16.9,24.1,,00.0,0639.4,30.9
2021-03-11T05:42:00Z,00000200,01000000,0001.49,0001.09,0000.47,-000.01,0000.28,0000.26,0000.87,0000.36,0001.05,16.8,24.0,,00.0,0639.4,30.9
2021-03-11T05:43:00Z,00000200,01000000,0001.88,0001.15,0000.68,0000.21,0000.34,0000.24,0000.77,0000.48,0000.44,16.8,24.0,,00.0,0639.4,30.9
2021-03-11T05:44:00Z,00000200,01000000,0002.10,0001.28,0000.72,0000.56,0000.32,0000.26,0000.67,0000.84,0000.44,16.9,24.0,,00.0,0639.3,30.9
2021-03-11T05:45:00Z,00000200,01000000,0002.29,0001.43,0000.74,0000.39,0000.21,0000.17,0000.98,0001.02,0000.52,16.9,24.0,,00.0,0639.3,30.9
2021-03-11T05:46:00Z,00000200,01000000,0002.68,0001.52,0001.01,0000.18,0000.35,0000.40,0000.55,0000.22,0000.06,17.0,24.0,,00.0,0639.4,30.9
2021-03-11T05:47:00Z,00000200,01000000,0002.78,0001.72,0000.81,0000.46,0000.46,0000.10,0000.72,0000.92,0000.83,17.0,24.1,,00.0,0639.4,30.9
2021-03-11T05:48:00Z,00000200,01000000,0002.01,0001.37,0001.00,0000.90,0000.32,0000.04,0000.87,0000.74,0000.51,17.1,24.1,,00.0,0639.4,30.9
2021-03-11T05:49:00Z,00000200,01000000,0002.35,0001.37,0000.80,0000.27,0000.39,0000.25,0000.65,0000.43,0000.68,17.2,24.1,,00.0,0639.4,30.9
2021-03-11T05:50:00Z,00000200,01000000,0002.60,0001.55,0000.73,0000.67,0000.28,0000.33,0001.14,0000.69,0000.59,17.2,24.2,,00.0,0639.4,30.9
2021-03-11T05:51:00Z,00000200,01000000,0002.79,0001.57,0000.78,0000.40,0000.48,0000.15,0001.00,0001.44,0000.54,17.3,24.2,,00.0,0639.4,30.9
2021-03-11T05:52:00Z,00000200,01000000,0002.95,0001.44,0000.94,0000.72,0000.29,-000.11,0000.87,0000.49,0000.91,17.3,24.2,,00.0,0639.4,31.0
2021-03-11T05:53:00Z,00000200,01000000,0003.01,0001.66,0000.95,0000.60,0000.25,0000.26,0000.92,0000.79,0000.31,17.4,24.3,,00.0,0639.5,31.0
2021-03-11T05:54:00Z,00000200,01000000,0002.92,0001.71,0001.00,0000.56,0000.47,0000.23,0000.79,0000.76,0000.53,17.4,24.3,,00.0,0639.5,31.0
2021-03-11T05:55:00Z,00000200,01000000,0002.93,0001.89,0000.63,0000.67,0000.69,-000.01,0000.62,0001.15,0000.69,17.4,24.3,,00.0,0639.5,31.0
2021-03-11T05:56:00Z,00000200,01000000,0002.84,0002.00,0001.10,0000.48,0000.33,0000.29,0001.12,0000.71,0000.39,17.4,24.3,,00.0,0639.5,30.9
2021-03-11T05:57:00Z,00000200,41000000,,,,,,,0001.63,0001.32,0001.24,17.5,24.4,,00.0,0639.5,30.9
2021-03-11T05:58:00Z,00000200,61000000,,,,,,,-000.65,-000.51,-000.28,17.0,24.4,,00.0,0638.5,30.9
2021-03-11T05:59:00Z,00000200,21000000,,,,,,,-000.27,-000.19,0000.13,17.0,24.5,,00.0,0638.5,30.9
